TimeCDT,TemperatureF,Dew PointF,Humidity,Sea Level PressureIn,VisibilityMPH,Wind Direction,Wind SpeedMPH,Gust SpeedMPH,PrecipitationIn,Events,Conditions,WindDirDegrees,DateUTC
12:15 AM,48.6,44.4,86,29.92,10.0,SSW,10.4,-,N/A,,Overcast,210,2013-03-31 05:15:00
12:35 AM,48.4,44.6,87,29.91,10.0,SSW,8.1,-,N/A,,Overcast,210,2013-03-31 05:35:00
12:55 AM,48.2,44.6,87,29.90,7.0,SW,5.8,-,N/A,,Overcast,220,2013-03-31 05:55:00
1:15 AM,47.8,44.6,89,29.90,7.0,SW,8.1,-,N/A,,Overcast,220,2013-03-31 06:15:00
1:35 AM,47.8,44.6,89,29.90,7.0,SW,9.2,-,N/A,,Overcast,220,2013-03-31 06:35:00
1:55 AM,47.7,44.8,90,29.89,7.0,SW,6.9,-,N/A,,Overcast,220,2013-03-31 06:55:00
2:15 AM,47.3,44.6,90,29.89,5.0,WSW,6.9,-,N/A,,Mostly Cloudy,240,2013-03-31 07:15:00
2:35 AM,46.9,44.6,92,29.89,5.0,West,5.8,-,N/A,,Mostly Cloudy,260,2013-03-31 07:35:00
2:55 AM,47.3,45.0,92,29.89,4.0,WSW,6.9,-,N/A,,Mostly Cloudy,240,2013-03-31 07:55:00
3:15 AM,47.3,45.3,93,29.88,4.0,WSW,8.1,-,N/A,,Mostly Cloudy,240,2013-03-31 08:15:00
3:35 AM,47.3,45.5,93,29.88,3.0,WSW,5.8,-,N/A,,Overcast,250,2013-03-31 08:35:00
3:55 AM,47.5,45.7,93,29.88,3.0,West,8.1,-,N/A,,Overcast,260,2013-03-31 08:55:00
4:15 AM,48.0,45.9,92,29.88,4.0,WSW,6.9,-,N/A,,Overcast,240,2013-03-31 09:15:00
4:35 AM,48.2,46.2,93,29.88,4.0,West,6.9,-,N/A,,Overcast,260,2013-03-31 09:35:00
4:55 AM,48.4,46.4,93,29.88,4.0,West,9.2,-,N/A,,Overcast,260,2013-03-31 09:55:00
5:15 AM,48.2,46.0,92,29.88,4.0,West,6.9,-,N/A,,Overcast,270,2013-03-31 10:15:00
5:35 AM,47.7,45.9,93,29.87,3.0,West,6.9,-,N/A,,Overcast,280,2013-03-31 10:35:00
5:55 AM,48.2,46.4,93,29.87,4.0,West,8.1,-,N/A,,Mostly Cloudy,280,2013-03-31 10:55:00
6:15 AM,48.2,46.4,93,29.88,4.0,West,5.8,-,N/A,,Scattered Clouds,270,2013-03-31 11:15:00
6:35 AM,48.2,46.4,93,29.88,4.0,West,6.9,-,N/A,,Scattered Clouds,260,2013-03-31 11:35:00
6:55 AM,48.4,46.8,94,29.88,4.0,WSW,5.8,-,N/A,,Mostly Cloudy,250,2013-03-31 11:55:00
7:15 AM,48.4,46.8,94,29.89,3.0,West,6.9,-,N/A,,Mostly Cloudy,260,2013-03-31 12:15:00
7:35 AM,48.6,46.9,94,29.89,3.0,West,8.1,-,N/A,,Mostly Cloudy,260,2013-03-31 12:35:00
7:55 AM,49.1,47.3,93,29.90,2.5,West,9.2,-,N/A,,Overcast,260,2013-03-31 12:55:00
8:15 AM,49.1,47.5,94,29.90,2.0,West,10.4,-,N/A,,Overcast,280,2013-03-31 13:15:00
8:35 AM,49.1,47.7,95,29.91,2.5,West,8.1,-,N/A,,Overcast,270,2013-03-31 13:35:00
8:55 AM,49.3,47.8,95,29.90,2.0,West,9.2,-,N/A,,Overcast,280,2013-03-31 13:55:00
9:15 AM,50.0,48.4,94,29.90,2.5,West,6.9,-,N/A,,Overcast,280,2013-03-31 14:15:00
9:35 AM,50.5,48.6,93,29.90,3.0,West,6.9,-,N/A,,Overcast,280,2013-03-31 14:35:00
9:55 AM,51.3,48.9,92,29.90,4.0,West,9.2,-,N/A,,Overcast,280,2013-03-31 14:55:00
10:15 AM,52.7,48.9,87,29.90,5.0,West,8.1,-,N/A,,Overcast,270,2013-03-31 15:15:00
10:35 AM,53.2,49.1,86,29.89,5.0,West,11.5,-,N/A,,Mostly Cloudy,280,2013-03-31 15:35:00
10:55 AM,54.1,49.3,84,29.89,5.0,West,10.4,-,N/A,,Haze,280,2013-03-31 15:55:00
11:15 AM,54.1,48.7,82,29.89,5.0,West,10.4,-,N/A,,Haze,280,2013-03-31 16:15:00
11:35 AM,55.8,48.9,78,29.88,5.0,West,10.4,-,N/A,,Haze,270,2013-03-31 16:35:00
11:55 AM,55.2,48.6,78,29.88,7.0,WNW,9.2,-,N/A,,Scattered Clouds,300,2013-03-31 16:55:00
12:15 PM,56.5,47.8,73,29.88,7.0,WNW,8.1,-,N/A,,Mostly Cloudy,290,2013-03-31 17:15:00
12:35 PM,57.7,47.3,68,29.87,10.0,West,8.1,-,N/A,,Mostly Cloudy,280,2013-03-31 17:35:00
12:55 PM,58.6,47.3,66,29.87,10.0,West,10.4,-,N/A,,Scattered Clouds,280,2013-03-31 17:55:00
1:15 PM,59.9,47.1,63,29.87,10.0,WNW,6.9,-,N/A,,Clear,290,2013-03-31 18:15:00
1:35 PM,61.7,46.4,57,29.87,10.0,WNW,9.2,-,N/A,,Scattered Clouds,290,2013-03-31 18:35:00
1:55 PM,62.4,45.7,54,29.86,10.0,West,9.2,-,N/A,,Scattered Clouds,260,2013-03-31 18:55:00
2:15 PM,63.0,45.1,52,29.86,10.0,West,12.7,19.6,N/A,,Clear,270,2013-03-31 19:15:00
2:35 PM,63.9,45.1,51,29.85,10.0,West,10.4,16.1,N/A,,Scattered Clouds,280,2013-03-31 19:35:00
2:55 PM,63.7,44.1,49,29.85,10.0,West,12.7,17.3,N/A,,Mostly Cloudy,270,2013-03-31 19:55:00
3:15 PM,63.9,44.1,49,29.85,10.0,West,12.7,16.1,N/A,,Scattered Clouds,280,2013-03-31 20:15:00
3:35 PM,64.2,43.5,47,29.85,10.0,WNW,16.1,21.9,N/A,,Scattered Clouds,300,2013-03-31 20:35:00
3:55 PM,62.8,43.0,48,29.85,10.0,WNW,18.4,21.9,N/A,,Scattered Clouds,290,2013-03-31 20:55:00
4:15 PM,62.8,41.7,46,29.85,10.0,West,16.1,21.9,N/A,,Scattered Clouds,280,2013-03-31 21:15:00
4:35 PM,62.2,41.2,46,29.85,10.0,WNW,21.9,-,N/A,,Scattered Clouds,290,2013-03-31 21:35:00
4:55 PM,63.5,40.5,43,29.85,10.0,WNW,19.6,24.2,N/A,,Scattered Clouds,290,2013-03-31 21:55:00
5:15 PM,63.5,40.8,43,29.85,10.0,WNW,18.4,26.5,N/A,,Clear,300,2013-03-31 22:15:00
5:35 PM,62.6,40.8,45,29.86,10.0,WNW,20.7,26.5,N/A,,Clear,290,2013-03-31 22:35:00
5:55 PM,61.7,41.2,47,29.86,10.0,WNW,16.1,23.0,N/A,,Clear,300,2013-03-31 22:55:00
6:15 PM,60.4,40.5,48,29.86,10.0,NW,18.4,23.0,N/A,,Clear,310,2013-03-31 23:15:00
6:35 PM,59.4,39.7,48,29.87,10.0,WNW,17.3,21.9,N/A,,Scattered Clouds,300,2013-03-31 23:35:00
6:55 PM,58.1,37.9,47,29.88,10.0,WNW,13.8,20.7,N/A,,Clear,290,2013-03-31 23:55:00
7:15 PM,56.5,37.2,49,29.88,10.0,WNW,12.7,-,N/A,,Clear,300,2013-04-01 00:15:00
7:35 PM,55.4,36.3,49,29.88,10.0,WNW,9.2,-,N/A,,Clear,300,2013-04-01 00:35:00
7:55 PM,54.0,36.3,51,29.89,10.0,WNW,9.2,-,N/A,,Clear,300,2013-04-01 00:55:00
8:15 PM,52.3,36.5,55,29.90,10.0,WNW,9.2,-,N/A,,Clear,300,2013-04-01 01:15:00
8:35 PM,51.4,36.1,56,29.90,10.0,NW,12.7,17.3,N/A,,Clear,320,2013-04-01 01:35:00
8:55 PM,51.8,33.8,50,29.91,10.0,NW,10.4,-,N/A,,Clear,320,2013-04-01 01:55:00
9:15 PM,50.7,33.1,51,29.93,10.0,NNW,12.7,-,N/A,,Clear,330,2013-04-01 02:15:00
9:35 PM,49.5,32.7,53,29.94,10.0,NNW,11.5,-,N/A,,Clear,330,2013-04-01 02:35:00
9:55 PM,47.8,32.2,55,29.95,10.0,NNW,11.5,-,N/A,,Clear,340,2013-04-01 02:55:00
10:15 PM,46.2,32.5,59,29.95,10.0,NNW,9.2,-,N/A,,Clear,330,2013-04-01 03:15:00
10:35 PM,46.0,32.9,60,29.95,10.0,NW,10.4,-,N/A,,Clear,320,2013-04-01 03:35:00
10:55 PM,45.9,32.0,58,29.96,10.0,NNW,17.3,23.0,N/A,,Clear,330,2013-04-01 03:55:00
11:15 PM,44.6,31.5,60,29.97,10.0,NNW,18.4,-,N/A,,Clear,330,2013-04-01 04:15:00
11:35 PM,44.6,32.0,61,29.98,10.0,NW,15.0,-,N/A,,Clear,320,2013-04-01 04:35:00
11:55 PM,42.8,32.0,66,29.98,10.0,NW,12.7,-,N/A,,Clear,310,2013-04-01 04:55:00